{"data":{"norad_id":55965,"epoch":"2026-09-20T00:11:36.829824Z","epoch_age_seconds":148602,"freshness":"FRESH","line1":"1 55965U 23037BD  26263.00806516  .00000069  00000+0  13613-4 0  9992","line2":"2 55965  69.9989 134.3714 0002644 266.7535  93.3321 14.98329343193588","mean_motion":14.98329343,"eccentricity":0.0002644,"inclination_deg":69.9989,"raan_deg":134.3714,"arg_perigee_deg":266.7535,"mean_anomaly_deg":93.3321,"bstar":1.3613e-5,"rev_number":19358,"period_min":96.107041267495,"perigee_km":570.22029112591,"apogee_km":573.89555420102,"semimajor_km":6950.1949226635,"source":"CELESTRAK","updated_at":"2026-09-21T09:00:33.348910Z"}}